When you browse on this site, cookies collect data to enhance your experience and personalize the content and advertising you see.
Visit our Privacy Policy to learn more. By continuing to use the site, you agree to this use of cookies and data.

Stündliche Wetter Kandahar

Heute, 9 August, Sonntag

Zeit Temperatur Niederschläge Wind Luftdruck Luftfeuchtigkeit
00:00 +30°C° 0 mm 2 m/S 668 mmHg 60%
01:00 +30°C° 0 mm 1 m/S 668 mmHg 60%
02:00 +29°C° 0 mm 2 m/S 668 mmHg 60%
03:00 +29°C° 0 mm 2 m/S 668 mmHg 60%
04:00 +29°C° 0 mm 2 m/S 668 mmHg 59%
05:00 +29°C° 0 mm 2 m/S 668 mmHg 56%
06:00 +30°C° 0 mm 2 m/S 668 mmHg 53%
07:00 +30°C° 0 mm 3 m/S 669 mmHg 50%
08:00 +33°C° 0 mm 3 m/S 669 mmHg 44%
09:00 +35°C° 0 mm 2 m/S 669 mmHg 39%
10:00 +36°C° 0 mm 2 m/S 669 mmHg 34%
11:00 +38°C° 0 mm 3 m/S 669 mmHg 30%
12:00 +40°C° 0 mm 4 m/S 669 mmHg 26%
13:00 +42°C° 0 mm 4 m/S 669 mmHg 21%
14:00 +43°C° 0 mm 5 m/S 668 mmHg 18%
15:00 +43°C° 0 mm 5 m/S 668 mmHg 15%
16:00 +45°C° 0 mm 6 m/S 668 mmHg 13%
17:00 +44°C° 0 mm 6 m/S 667 mmHg 16%
18:00 +41°C° 0 mm 6 m/S 667 mmHg 18%
19:00 +40°C° 0 mm 5 m/S 667 mmHg 21%
20:00 +39°C° 0 mm 5 m/S 667 mmHg 22%
21:00 +36°C° 0 mm 4 m/S 667 mmHg 23%
22:00 +35°C° 0 mm 4 m/S 667 mmHg 24%
23:00 +34°C° 0 mm 4 m/S 667 mmHg 28%

Morgen, 10 August, Montag

Zeit Temperatur Niederschläge Wind Luftdruck Luftfeuchtigkeit
00:00 +33°C° 0 mm 3 m/S 667 mmHg 32%
01:00 +31°C° 0 mm 3 m/S 667 mmHg 35%
02:00 +30°C° 0 mm 3 m/S 666 mmHg 39%
03:00 +29°C° 0 mm 3 m/S 666 mmHg 42%
04:00 +28°C° 0 mm 3 m/S 666 mmHg 45%
05:00 +29°C° 0 mm 3 m/S 667 mmHg 42%
06:00 +30°C° 0 mm 3 m/S 667 mmHg 38%
07:00 +30°C° 0 mm 3 m/S 668 mmHg 35%
08:00 +33°C° 0 mm 3 m/S 668 mmHg 28%
09:00 +35°C° 0 mm 3 m/S 668 mmHg 22%
10:00 +37°C° 0 mm 3 m/S 668 mmHg 16%
11:00 +39°C° 0 mm 3 m/S 668 mmHg 13%
12:00 +40°C° 0 mm 3 m/S 668 mmHg 9%
13:00 +43°C° 0 mm 3 m/S 668 mmHg 5%
14:00 +43°C° 0 mm 3 m/S 667 mmHg 4%
15:00 +42°C° 0 mm 2 m/S 667 mmHg 4%
16:00 +42°C° 0 mm 2 m/S 666 mmHg 3%
17:00 +40°C° 0 mm 1 m/S 666 mmHg 4%
18:00 +37°C° 0 mm 1 m/S 666 mmHg 5%
19:00 +32°C° 0 mm 0 m/S 665 mmHg 6%
20:00 +34°C° 0 mm 1 m/S 666 mmHg 6%
21:00 +33°C° 0 mm 1 m/S 666 mmHg 6%
22:00 +32°C° 0 mm 1 m/S 666 mmHg 6%
23:00 +32°C° 0 mm 1 m/S 666 mmHg 7%

übermorgen, 11 August, Dienstag

Zeit Temperatur Niederschläge Wind Luftdruck Luftfeuchtigkeit
00:00 +31°C° 0 mm 2 m/S 666 mmHg 8%
01:00 +30°C° 0 mm 2 m/S 666 mmHg 9%
02:00 +29°C° 0 mm 2 m/S 666 mmHg 14%
03:00 +28°C° 0 mm 2 m/S 666 mmHg 19%
04:00 +27°C° 0 mm 1 m/S 666 mmHg 25%
05:00 +28°C° 0 mm 1 m/S 667 mmHg 23%
06:00 +29°C° 0 mm 1 m/S 667 mmHg 21%
07:00 +30°C° 0 mm 2 m/S 668 mmHg 19%
08:00 +32°C° 0 mm 2 m/S 668 mmHg 16%
09:00 +34°C° 0 mm 1 m/S 668 mmHg 13%
10:00 +36°C° 0 mm 1 m/S 668 mmHg 9%
11:00 +37°C° 0 mm 1 m/S 668 mmHg 9%
12:00 +40°C° 0 mm 1 m/S 668 mmHg 8%
13:00 +41°C° 0 mm 1 m/S 668 mmHg 7%
14:00 +42°C° 0 mm 1 m/S 667 mmHg 6%
15:00 +42°C° 0 mm 2 m/S 667 mmHg 6%
16:00 +43°C° 0 mm 2 m/S 667 mmHg 6%
17:00 +41°C° 0 mm 2 m/S 667 mmHg 6%
18:00 +39°C° 0 mm 2 m/S 667 mmHg 7%
19:00 +38°C° 0 mm 2 m/S 666 mmHg 7%
20:00 +37°C° 0 mm 2 m/S 667 mmHg 8%
21:00 +36°C° 0 mm 2 m/S 667 mmHg 10%
22:00 +35°C° 0 mm 3 m/S 667 mmHg 11%
23:00 +32°C° 0 mm 2 m/S 667 mmHg 13%

12 August, Mittwoch

Zeit Temperatur Niederschläge Wind Luftdruck Luftfeuchtigkeit
00:00 +31°C° 0 mm 1 m/S 667 mmHg 15%
01:00 +30°C° 0 mm 1 m/S 667 mmHg 16%
02:00 +29°C° 0 mm 1 m/S 667 mmHg 16%
03:00 +29°C° 0 mm 1 m/S 667 mmHg 17%
04:00 +28°C° 0 mm 1 m/S 666 mmHg 17%
05:00 +30°C° 0 mm 1 m/S 667 mmHg 16%
06:00 +32°C° 0 mm 1 m/S 668 mmHg 14%
07:00 +33°C° 0 mm 1 m/S 669 mmHg 12%
08:00 +35°C° 0 mm 1 m/S 669 mmHg 11%
09:00 +36°C° 0 mm 1 m/S 669 mmHg 10%
10:00 +39°C° 0 mm 1 m/S 669 mmHg 10%
11:00 +41°C° 0 mm 2 m/S 669 mmHg 9%
12:00 +42°C° 0 mm 2 m/S 669 mmHg 9%
13:00 +43°C° 0 mm 2 m/S 669 mmHg 9%
14:00 +45°C° 0 mm 3 m/S 668 mmHg 9%
15:00 +45°C° 0 mm 4 m/S 668 mmHg 9%
16:00 +45°C° 0 mm 4 m/S 667 mmHg 9%
17:00 +45°C° 0 mm 5 m/S 667 mmHg 9%
18:00 +42°C° 0 mm 5 m/S 667 mmHg 9%
19:00 +41°C° 0 mm 6 m/S 667 mmHg 9%
20:00 +39°C° 0 mm 5 m/S 667 mmHg 9%
21:00 +37°C° 0 mm 3 m/S 668 mmHg 9%
22:00 +36°C° 0 mm 2 m/S 668 mmHg 10%
23:00 +35°C° 0 mm 2 m/S 668 mmHg 10%

13 August, Donnerstag

Zeit Temperatur Niederschläge Wind Luftdruck Luftfeuchtigkeit
00:00 +34°C° 0 mm 2 m/S 667 mmHg 10%
01:00 +32°C° 0 mm 2 m/S 667 mmHg 11%
02:00 +31°C° 0 mm 2 m/S 667 mmHg 12%
03:00 +30°C° 0 mm 2 m/S 667 mmHg 13%
04:00 +29°C° 0 mm 2 m/S 666 mmHg 15%
05:00 +30°C° 0 mm 1 m/S 667 mmHg 14%
06:00 +31°C° 0 mm 1 m/S 668 mmHg 13%
07:00 +32°C° 0 mm 1 m/S 668 mmHg 12%
08:00 +34°C° 0 mm 1 m/S 669 mmHg 11%
09:00 +37°C° 0 mm 2 m/S 669 mmHg 9%
10:00 +39°C° 0 mm 2 m/S 669 mmHg 8%
11:00 +40°C° 0 mm 2 m/S 669 mmHg 7%
12:00 +43°C° 0 mm 3 m/S 668 mmHg 6%
13:00 +45°C° 0 mm 4 m/S 668 mmHg 5%
14:00 +46°C° 0 mm 5 m/S 668 mmHg 5%
15:00 +47°C° 0 mm 6 m/S 667 mmHg 4%
16:00 +47°C° 0 mm 7 m/S 667 mmHg 4%
17:00 +45°C° 0 mm 6 m/S 666 mmHg 4%
18:00 +42°C° 0 mm 6 m/S 666 mmHg 5%
19:00 +40°C° 0 mm 5 m/S 666 mmHg 6%
20:00 +38°C° 0 mm 4 m/S 666 mmHg 6%
21:00 +36°C° 0 mm 3 m/S 666 mmHg 7%
22:00 +35°C° 0 mm 3 m/S 666 mmHg 7%
23:00 +34°C° 0 mm 3 m/S 666 mmHg 8%

14 August, Freitag

Zeit Temperatur Niederschläge Wind Luftdruck Luftfeuchtigkeit
00:00 +32°C° 0 mm 2 m/S 666 mmHg 9%
01:00 +31°C° 0 mm 2 m/S 666 mmHg 9%
02:00 +30°C° 0 mm 2 m/S 666 mmHg 10%
03:00 +29°C° 0 mm 2 m/S 665 mmHg 11%
04:00 +28°C° 0 mm 1 m/S 665 mmHg 12%
05:00 +30°C° 0 mm 1 m/S 666 mmHg 11%
06:00 +31°C° 0 mm 1 m/S 667 mmHg 10%
07:00 +33°C° 0 mm 1 m/S 667 mmHg 9%
08:00 +34°C° 0 mm 1 m/S 668 mmHg 8%
09:00 +36°C° 0 mm 1 m/S 668 mmHg 7%
10:00 +39°C° 0 mm 1 m/S 668 mmHg 6%
11:00 +40°C° 0 mm 1 m/S 668 mmHg 6%
12:00 +42°C° 0 mm 2 m/S 668 mmHg 5%
13:00 +45°C° 0 mm 2 m/S 667 mmHg 5%
14:00 +45°C° 0 mm 3 m/S 667 mmHg 4%
15:00 +47°C° 0 mm 4 m/S 667 mmHg 4%
16:00 +47°C° 0 mm 4 m/S 666 mmHg 4%
17:00 +44°C° 0 mm 4 m/S 666 mmHg 4%
18:00 +42°C° 0 mm 4 m/S 666 mmHg 5%
19:00 +39°C° 0 mm 3 m/S 666 mmHg 6%
20:00 +38°C° 0 mm 3 m/S 666 mmHg 7%
21:00 +37°C° 0 mm 2 m/S 666 mmHg 9%
22:00 +35°C° 0 mm 2 m/S 666 mmHg 10%
23:00 +33°C° 0 mm 1 m/S 666 mmHg 10%
Mehr zeigen